Theta_e
344 345 345 346 347 348 350 352 351 352 351 351 351 350 350 350 350 349 349 348 347 344 343 342 342 342 345 343 344 343 342 341 341 341 342 342 342 342 342 342 343 343 344 344 346 347 347 347 347 346 346 347 347 340 336 335 337 338 338 338 339 337
342 342 343 345 347 348 349 350 348 348 349 349 350 351 349 347 351 345 349 347 344 345 342 342 341 346 344 344 342 344 343 343 342 342 342 342 343 342 343 343 343 343 343 344 345 339 342 348 348 347 347 347 343 337 336 335 336 335 337 334 337 340
340 341 341 343 345 346 346 347 347 347 348 350 351 350 346 349 344 345 345 345 346 345 343 342 344 346 345 345 343 345 345 344 343 342 342 343 342 343 343 343 344 343 343 343 339 338 339 340 341 348 349 345 338 336 336 336 336 334 334 335 335 344
340 340 340 340 342 343 343 345 346 346 346 346 346 347 346 346 346 345 345 344 344 345 346 343 351 352 349 343 342 345 345 344 344 343 343 343 344 344 344 343 343 344 344 341 332 334 339 340 340 339 339 339 337 336 337 336 337 333 335 340 337 346
341 341 339 339 339 338 338 340 344 345 345 345 345 345 345 344 345 345 345 344 344 344 345 343 341 344 341 340 339 339 340 339 337 338 343 336 336 339 341 338 336 338 336 335 332 331 334 336 339 339 337 336 335 334 335 337 337 335 335 337 339 346
342 341 339 337 336 338 337 336 341 343 344 343 345 344 343 342 343 344 343 343 344 336 339 337 338 339 342 341 340 340 340 340 338 339 341 339 338 337 336 337 333 330 329 329 328 329 330 334 334 337 337 336 336 336 336 336 334 335 334 334 339 346
342 340 337 337 337 338 334 335 339 341 342 340 343 341 339 339 340 342 340 340 334 334 333 336 331 336 338 340 340 341 340 341 340 339 340 338 337 338 337 335 332 330 328 328 328 328 328 329 330 336 338 336 336 336 337 336 333 334 335 334 340 347
342 339 336 337 338 337 335 335 337 344 342 341 339 337 337 337 339 339 341 338 340 336 335 337 337 335 336 338 342 343 343 343 341 341 341 339 336 337 337 336 335 332 330 329 328 328 328 328 329 332 337 336 336 336 336 335 332 333 335 335 338 346
342 340 338 338 338 337 337 336 338 339 337 345 336 336 336 338 336 336 339 338 342 338 340 339 337 336 335 335 337 341 343 342 342 341 343 342 343 341 341 341 338 336 333 332 330 331 332 334 332 332 331 331 331 331 332 334 334 333 335 336 336 343
342 341 338 338 337 337 337 336 336 337 336 341 335 338 337 335 334 335 336 340 342 342 339 339 337 336 335 334 336 339 341 341 341 342 341 341 342 343 340 339 340 340 339 338 338 338 339 336 336 334 331 332 333 333 332 330 331 333 332 336 337 340
340 340 337 337 337 336 336 335 337 336 335 337 337 337 335 336 335 336 335 342 344 345 342 339 338 338 340 338 339 339 338 339 339 341 343 341 341 341 340 340 340 338 339 339 339 340 339 338 337 336 334 334 332 332 332 332 333 335 335 336 338 338
338 338 337 336 336 336 335 336 335 334 335 338 337 337 337 340 344 340 343 343 343 344 344 340 340 339 338 336 335 336 338 339 340 341 341 341 340 340 340 341 341 340 340 340 340 339 340 338 337 337 336 335 334 334 332 334 334 333 334 335 338 339
339 337 335 335 335 335 336 336 333 335 341 342 342 343 342 343 343 344 344 343 342 343 342 341 340 337 341 336 336 337 339 341 341 341 341 343 343 341 340 340 340 341 339 339 339 338 340 339 337 336 336 336 336 334 334 336 333 333 332 333 335 338
338 335 335 335 335 335 338 339 342 342 344 343 343 343 344 344 344 344 343 343 344 345 343 342 342 340 338 337 336 339 339 340 341 343 343 342 341 341 339 340 339 338 342 336 336 336 335 336 336 336 335 336 336 336 336 336 334 332 332 333 335 337
337 335 335 337 340 339 338 339 339 341 341 341 341 341 339 339 339 343 342 342 344 344 344 343 343 342 340 338 338 339 339 341 343 340 340 343 341 340 338 338 336 334 335 333 334 335 336 335 335 336 336 335 334 336 336 335 335 333 333 334 334 334
339 340 339 339 338 339 340 340 341 341 337 339 340 339 340 340 342 340 340 340 339 341 342 342 342 342 340 341 339 339 339 339 343 341 341 340 338 337 337 337 336 335 331 332 332 332 332 332 333 334 335 335 336 337 336 335 335 336 335 336 335 333
337 337 337 337 336 335 337 337 337 338 338 339 340 340 340 340 339 339 339 340 340 340 338 340 337 341 338 340 340 338 340 343 343 341 340 339 338 338 336 338 334 335 333 330 332 332 332 333 333 334 333 333 335 336 335 335 335 335 337 334 333 333
337 338 338 337 335 335 336 337 336 337 339 338 339 338 339 340 337 338 339 339 339 339 338 337 339 342 341 342 340 337 337 340 342 341 337 336 337 338 335 334 332 333 335 333 331 331 331 332 334 335 334 333 333 333 334 335 336 337 335 334 334 334
337 337 338 338 338 337 337 337 336 334 334 335 336 338 337 337 337 339 338 336 337 338 340 338 337 341 340 340 340 339 338 341 341 339 338 335 336 335 333 334 332 332 334 334 332 333 332 332 333 333 333 333 333 333 333 334 336 335 334 335 335 336
336 338 338 336 335 334 335 336 334 334 334 334 333 336 336 337 337 336 338 335 337 339 341 339 340 338 341 340 339 339 339 339 339 338 337 335 333 333 333 332 332 332 332 332 334 334 333 332 331 330 330 331 332 332 333 334 334 334 333 333 335 334
333 336 335 334 334 333 332 333 333 331 332 333 331 332 333 334 336 336 338 339 340 340 337 337 340 341 337 340 337 337 337 337 336 335 335 334 334 334 333 333 333 331 331 330 329 332 333 330 327 324 326 327 328 329 330 331 332 332 333 335 335 334
331 333 334 334 334 334 333 332 331 331 332 333 332 331 332 334 333 335 336 336 336 336 339 337 338 337 336 335 334 334 334 335 334 333 333 333 333 335 332 332 331 330 331 329 329 332 332 329 323 322 322 322 322 325 327 331 331 332 334 335 334 333
331 331 332 333 333 331 331 332 331 331 331 329 332 333 333 336 336 333 333 335 337 336 334 334 334 335 334 334 334 333 333 332 332 332 330 330 330 329 329 328 328 328 327 329 329 332 331 331 325 324 323 318 316 319 320 323 326 328 329 331 332 332
331 330 331 333 333 334 335 335 335 335 334 333 332 335 334 334 334 335 334 334 333 332 332 331 331 331 331 330 330 329 329 329 328 329 328 327 326 326 326 326 326 327 327 324 325 326 330 330 328 326 318 318 319 318 314 316 322 326 327 329 330 332
331 330 331 334 333 334 334 332 332 332 332 331 331 331 330 330 332 333 330 330 330 330 330 329 328 328 330 328 327 326 326 326 326 326 326 325 324 324 324 324 325 324 324 322 322 322 325 327 325 331 325 321 319 317 318 321 323 322 327 326 326 327
331 331 332 332 333 333 332 329 328 326 325 325 324 325 326 329 330 328 327 328 328 329 328 326 326 326 327 327 325 324 324 324 323 323 324 322 322 322 322 322 323 323 323 323 322 320 319 322 324 326 326 327 326 320 319 322 323 317 325 326 325 326
331 331 332 333 333 332 330 329 329 328 327 325 324 326 331 332 329 328 328 327 326 326 325 324 324 324 323 324 323 323 322 322 321 321 323 320 319 319 321 321 323 322 322 322 321 317 317 317 319 321 322 322 323 325 324 321 317 318 314 320 323 324
331 331 331 331 331 331 330 330 328 327 327 326 327 328 331 330 329 328 326 325 325 324 324 323 323 323 322 322 322 321 320 320 319 320 321 318 318 319 320 319 322 321 320 319 318 316 315 316 315 315 319 318 319 319 320 319 319 316 315 312 314 319
329 329 330 332 331 331 331 330 328 327 326 327 330 330 330 329 327 327 325 325 324 324 323 322 322 322 321 321 322 320 319 318 318 319 320 318 317 317 316 317 318 316 315 315 316 317 315 314 314 313 314 314 315 315 316 316 317 316 314 311 312 313
328 329 329 330 330 329 329 329 328 328 327 328 330 329 328 326 325 324 322 322 321 322 322 320 320 321 321 321 319 320 318 317 317 318 319 315 316 315 315 317 316 315 314 313 314 314 314 314 313 313 313 313 312 312 312 313 313 314 314 313 310 310
328 329 329 329 329 329 329 330 329 330 329 329 328 327 325 323 323 323 322 322 320 319 319 319 319 319 318 318 318 319 317 317 317 318 316 315 314 314 314 315 315 314 313 312 312 313 313 313 312 312 312 312 311 311 311 311 311 312 312 310 309 309
329 330 330 330 330 329 328 327 327 326 326 326 326 324 322 321 322 322 321 320 320 318 317 317 318 317 315 316 317 315 316 314 315 314 313 314 314 314 315 315 313 313 311 311 312 313 311 311 311 312 311 311 311 312 314 314 313 312 311 310 310 309
328 327 326 326 325 325 325 324 325 324 324 324 323 322 321 321 321 320 319 318 318 316 315 314 314 314 314 314 315 313 313 312 313 314 314 314 314 314 313 313 312 311 310 310 310 311 310 311 311 310 310 311 312 313 314 315 313 311 310 310 310 307
324 324 323 323 323 323 324 324 323 322 321 321 320 320 320 320 319 319 319 317 316 315 314 313 313 312 313 314 313 314 313 313 313 313 314 314 313 314 313 312 310 309 309 310 311 311 310 311 310 310 311 309 310 311 310 311 310 310 308 307 306 305
322 322 321 321 321 321 322 322 321 321 320 319 318 318 319 319 318 317 318 317 316 314 313 313 312 312 314 312 313 313 313 311 312 311 312 312 312 311 311 311 310 309 310 310 310 310 309 310 311 310 309 309 309 307 308 308 308 308 308 306 304 303
320 319 319 319 318 318 318 319 319 319 319 319 319 318 318 318 317 317 316 316 315 314 313 313 313 311 312 312 312 312 312 312 311 311 312 311 310 310 309 309 307 307 307 312 309 308 308 309 308 308 308 308 306 305 306 306 306 306 306 305 303 302
318 318 317 317 317 317 317 318 318 318 317 316 316 316 316 316 316 316 315 314 313 313 313 312 314 313 311 311 312 311 310 310 309 310 310 310 309 309 308 307 307 306 306 308 309 308 308 307 307 306 307 306 305 304 304 305 304 305 304 303 302 301
Wind_Speed
8 9 8 7 6 7 10 15 14 17 17 16 13 13 11 11 10 10 9 9 9 6 5 4 5 3 7 3 6 7 5 5 4 4 4 3 2 2 2 3 3 2 3 3 2 4 6 7 8 9 9 9 9 6 5 5 2 1 5 4 4 5
9 9 9 7 5 6 7 10 7 8 9 10 10 10 7 4 7 3 9 7 4 4 4 4 5 6 3 4 5 7 6 5 5 5 3 3 2 3 4 4 5 5 5 4 4 2 3 6 9 10 9 9 6 5 6 5 4 1 4 5 4 7
9 9 9 7 6 6 7 6 7 7 6 8 8 6 4 4 3 3 3 4 4 3 4 5 4 5 4 6 5 8 6 5 5 5 5 4 4 4 5 6 7 6 6 6 2 3 3 4 5 10 9 6 5 5 5 6 6 1 5 5 4 11
10 10 8 7 7 6 6 7 6 6 5 5 4 5 4 4 4 4 4 5 4 3 4 5 8 11 8 4 4 7 7 6 6 6 6 4 6 7 8 8 7 8 5 3 3 3 4 5 5 5 5 5 5 5 5 5 6 2 5 6 6 12
11 9 8 7 7 7 6 6 6 6 5 5 5 4 5 4 5 5 6 5 5 4 5 6 3 4 6 5 4 3 3 3 2 2 5 3 3 4 4 4 4 5 5 4 4 5 5 6 5 5 6 6 5 5 6 6 5 3 5 5 6 13
10 9 9 7 7 7 6 7 7 6 6 5 6 5 5 5 5 6 5 3 4 5 5 3 3 4 5 4 3 3 4 3 3 3 3 4 3 3 3 4 4 5 5 5 5 5 5 6 5 5 6 5 6 5 6 6 6 1 4 4 7 13
9 9 9 8 7 5 5 6 6 6 6 5 6 5 6 6 6 3 4 3 4 0 1 2 1 2 3 2 3 3 3 4 4 4 4 3 2 4 4 4 4 5 5 3 5 5 6 6 5 5 6 6 6 6 6 6 7 3 5 5 5 11
9 9 8 9 7 7 6 6 7 7 7 6 6 5 6 4 3 3 2 3 2 1 0 3 2 4 2 3 1 1 2 5 5 5 5 4 5 5 5 4 5 5 5 4 5 5 5 7 8 7 7 6 5 6 6 7 7 2 5 6 6 9
11 11 9 8 8 7 6 6 6 6 7 6 6 6 5 3 3 2 3 3 1 1 4 3 3 2 1 1 0 2 1 1 3 5 4 5 3 1 2 3 3 4 5 5 5 5 5 4 3 3 5 5 5 5 5 2 3 3 4 5 5 7
11 8 9 8 6 7 6 7 7 7 6 5 6 5 6 5 3 3 3 1 2 4 4 4 3 1 3 3 3 2 3 2 3 1 1 1 2 1 2 3 3 4 4 4 5 5 6 6 5 5 3 4 5 6 5 4 4 4 3 5 5 6
5 6 7 7 7 7 7 7 6 5 5 5 6 6 6 5 4 3 3 3 4 3 4 4 4 1 0 1 3 3 4 3 3 2 0 0 1 1 2 3 3 4 3 4 5 4 4 5 5 4 4 5 4 3 6 2 3 3 3 5 5 5
5 8 9 6 7 7 7 6 6 6 5 5 5 6 5 5 4 3 3 4 3 3 3 2 3 2 1 1 1 4 4 3 3 2 0 1 2 2 2 4 4 4 3 3 4 4 4 4 5 4 5 5 5 5 3 3 5 4 3 2 5 4
7 8 8 7 6 5 6 6 6 5 6 6 6 6 6 5 5 3 3 3 2 2 1 1 2 2 1 1 2 2 2 3 3 2 1 1 2 2 2 3 3 3 4 4 4 5 5 4 4 5 5 5 5 5 3 0 4 5 4 3 2 4
7 7 7 6 6 5 6 7 6 6 6 7 6 6 5 6 4 3 2 2 1 0 1 1 1 2 2 3 2 2 2 3 3 0 0 1 3 3 3 4 3 3 4 3 4 5 5 6 5 5 4 3 3 5 5 4 1 3 4 4 3 4
6 5 5 5 7 7 6 7 7 7 6 5 5 6 6 5 3 4 2 1 0 0 1 1 2 1 2 3 3 3 4 5 2 2 3 1 2 3 3 4 3 3 3 4 4 5 4 5 5 5 5 6 5 5 4 3 3 3 4 5 2 2
6 7 7 8 6 7 8 8 7 6 6 5 5 6 6 1 1 3 5 6 10 9 7 7 5 3 4 5 4 4 4 2 5 3 3 2 2 3 4 3 3 2 3 4 4 4 5 5 4 5 5 6 6 5 5 5 4 4 3 3 4 3
7 8 8 8 7 7 10 10 8 5 5 4 5 5 4 4 5 4 5 6 5 6 4 5 8 7 6 5 3 1 4 4 3 3 4 3 4 4 3 4 3 3 2 3 4 5 5 5 5 5 5 5 5 5 5 6 5 5 3 2 3 4
7 7 7 7 7 7 8 8 5 4 5 5 5 4 5 5 5 3 4 5 6 5 5 5 2 5 5 4 1 1 3 4 4 3 3 3 4 4 3 2 3 3 4 3 4 4 5 5 5 5 5 6 6 5 6 6 6 5 4 4 4 4
7 8 8 7 7 8 8 7 5 5 4 5 4 4 4 6 4 3 5 6 6 5 3 1 2 3 2 2 2 2 3 3 2 3 3 4 4 3 3 3 3 3 4 4 4 5 5 4 4 5 6 7 6 6 6 6 6 6 5 4 4 4
7 7 7 6 7 8 7 6 6 4 4 4 4 4 4 5 4 4 4 5 4 3 3 4 1 4 1 2 1 3 2 2 4 3 3 4 5 5 5 3 3 3 4 4 5 4 3 4 4 5 5 6 6 6 7 6 5 5 3 3 4 3
5 7 8 7 5 6 7 6 5 6 6 3 3 4 5 4 4 3 2 3 2 4 4 4 5 2 4 5 5 5 5 6 6 6 6 6 5 5 6 5 4 3 4 4 4 4 4 3 3 4 4 5 6 5 6 5 4 3 4 6 5 4
5 6 6 7 7 6 4 5 6 6 6 5 4 5 5 4 4 4 3 3 2 0 2 5 5 6 6 7 6 6 7 7 7 6 6 6 7 7 8 8 7 7 5 5 5 6 7 5 3 4 7 7 5 5 5 1 1 2 4 6 5 4
6 5 6 7 7 7 3 5 5 5 6 4 4 3 4 4 5 5 2 3 3 2 7 7 7 8 8 8 8 7 7 7 7 7 7 7 7 8 7 8 8 7 7 5 4 4 8 8 6 6 5 2 5 7 6 4 4 8 8 6 4 4
6 5 6 5 6 5 5 5 6 6 5 4 5 3 4 4 3 2 3 5 6 8 9 9 9 9 8 8 8 8 6 6 6 6 6 6 6 7 7 7 7 7 6 6 6 5 7 8 7 7 6 3 4 4 6 3 9 8 4 4 4 5
6 6 6 6 8 7 7 6 7 7 6 8 6 4 3 3 3 6 7 8 9 10 10 10 9 9 8 7 7 7 6 6 6 6 5 7 6 6 6 5 7 6 6 5 6 4 6 8 8 7 6 5 4 1 1 6 10 5 2 7 5 4
5 5 5 6 8 7 7 8 7 7 7 6 6 5 5 6 7 7 8 7 9 9 10 9 9 9 8 7 6 6 6 6 6 7 6 6 6 7 8 8 7 5 6 6 4 5 6 6 6 7 7 5 3 5 8 8 6 7 6 4 3 4
5 6 4 5 6 7 7 6 7 7 7 7 7 3 3 7 8 7 7 8 7 8 9 9 8 8 7 7 6 6 6 6 6 6 6 6 6 6 5 5 6 7 6 7 8 7 7 7 5 6 7 6 6 5 6 6 6 8 10 4 3 7
5 6 5 6 6 6 8 6 7 7 7 7 7 7 8 7 7 7 8 8 7 7 8 8 8 8 7 6 6 6 5 6 6 6 6 6 6 5 6 6 7 8 8 8 8 7 6 8 8 7 8 8 7 6 6 5 5 6 5 9 13 6
5 5 5 5 5 4 4 6 7 7 8 6 7 7 8 8 8 7 8 6 8 8 8 7 7 6 6 6 5 5 5 6 7 6 7 6 6 6 7 7 8 9 8 7 7 6 6 7 7 7 7 8 6 7 5 4 6 7 6 7 7 10
4 3 3 4 5 5 5 6 7 7 10 8 7 8 7 8 7 7 8 8 8 7 6 6 6 7 6 5 5 5 5 6 6 6 5 5 5 6 6 6 7 7 7 7 6 6 6 5 6 6 7 6 7 7 6 5 6 8 5 3 6 9
4 3 3 4 4 6 5 5 6 7 8 10 9 9 9 8 7 7 8 7 7 6 6 6 6 6 5 5 5 5 6 5 5 4 5 4 5 6 5 6 7 7 6 5 5 5 6 5 5 6 7 6 6 7 6 7 8 8 8 7 9 8
5 5 3 3 3 6 7 8 8 9 9 9 8 8 9 9 8 9 7 8 7 7 6 6 5 5 5 5 5 5 4 4 4 4 5 4 5 6 6 6 6 6 6 5 4 3 4 4 5 4 4 5 5 5 5 6 7 7 8 9 8 9
6 4 5 6 6 7 8 8 9 9 8 8 9 9 9 8 7 8 7 9 7 6 6 6 5 5 3 4 4 4 4 5 5 5 5 5 5 6 7 7 6 5 6 6 6 4 5 4 4 4 4 4 6 6 7 7 7 8 8 8 8 9
9 6 6 6 7 8 8 8 9 8 8 9 9 9 8 8 8 8 8 8 7 6 6 5 5 4 3 3 3 4 4 5 5 5 5 6 6 7 7 6 5 5 5 5 5 5 5 3 4 4 6 7 8 9 9 9 9 8 8 9 9 10
10 7 7 6 7 7 7 8 8 8 8 8 9 9 8 7 8 8 8 8 7 6 6 5 6 3 4 4 3 4 4 4 4 5 5 7 7 7 6 6 5 5 5 4 5 6 7 6 8 8 9 8 8 9 8 8 8 8 8 9 9 10
9 7 7 7 6 7 7 8 8 9 8 9 8 8 8 8 8 8 8 8 7 6 5 5 4 4 2 3 3 4 4 6 6 6 6 6 6 6 5 5 4 5 5 4 5 6 6 7 9 8 7 8 9 9 8 8 8 8 8 8 9 8
8 7 6 6 6 6 7 8 7 8 8 8 8 9 9 10 10 8 7 7 6 6 5 4 3 3 3 4 4 5 6 6 6 6 5 4 4 4 4 3 4 4 5 5 4 6 6 8 8 8 8 10 9 8 8 8 8 8 8 8 7 7
Wind_Direction
145 143 138 131 129 134 143 141 144 143 143 143 145 149 152 149 142 145 143 146 144 142 148 154 149 161 156 160 158 156 158 160 175 165 175 187 195 221 262 270 295 292 296 275 255 251 271 278 289 294 296 298 307 316 309 310 6 299 136 148 146 154
149 148 139 131 131 132 133 132 129 140 143 148 151 156 148 137 144 148 156 158 152 159 158 161 173 170 161 161 153 161 164 172 173 178 187 203 225 244 266 281 279 275 270 283 282 278 269 270 267 266 273 282 295 293 293 300 306 156 153 145 159 162
153 146 138 132 132 132 128 126 130 139 146 149 160 147 137 148 136 174 173 174 178 175 167 182 184 169 164 165 169 166 173 174 179 190 194 205 227 242 253 258 263 273 277 280 296 272 258 251 258 264 259 266 275 272 276 282 286 172 164 153 167 166
147 142 136 135 136 138 133 132 135 138 141 145 148 147 166 164 172 191 188 191 193 191 184 184 193 170 171 159 175 174 180 185 193 203 210 215 226 227 233 242 251 258 275 275 251 243 247 246 244 241 255 254 255 262 259 258 271 211 168 162 167 174
139 140 137 138 144 149 142 135 140 140 147 151 157 169 184 180 188 196 203 197 196 190 186 192 170 152 132 160 175 172 183 194 221 220 216 219 233 244 239 246 256 257 251 248 243 236 238 243 229 220 226 238 241 254 264 265 260 265 168 162 167 177
143 142 141 143 145 152 141 141 144 150 154 162 168 181 194 195 189 193 213 184 197 156 144 180 151 150 166 162 158 187 194 189 212 240 230 223 229 232 251 255 244 246 246 235 246 257 254 251 235 214 222 227 226 242 256 268 266 202 154 167 180 178
140 138 141 146 148 144 148 149 149 150 158 170 176 180 192 188 190 162 180 135 93 122 124 137 220 158 95 102 178 207 208 195 202 228 234 212 245 240 232 237 260 252 253 253 258 260 265 269 260 235 225 221 223 229 240 254 258 104 150 156 174 185
138 144 148 156 154 153 160 153 158 163 160 176 169 179 174 175 153 119 116 117 125 87 263 57 89 57 57 62 67 188 228 213 191 221 224 185 230 237 223 224 237 243 243 243 246 252 260 269 269 249 227 229 226 232 240 242 250 174 156 161 172 191
149 153 155 156 149 159 158 153 155 162 160 173 172 175 149 143 156 149 105 126 112 49 47 85 73 61 91 68 266 331 288 245 190 200 193 203 212 166 183 189 194 208 222 236 234 241 236 251 274 251 230 239 231 228 220 225 277 273 151 168 177 191
154 154 143 138 147 153 150 142 153 158 153 144 157 123 134 138 155 114 101 101 117 91 86 89 77 27 51 353 341 322 310 350 342 350 300 285 294 302 326 335 330 336 325 319 330 319 333 331 329 332 307 264 276 274 253 229 243 269 155 174 180 188
147 124 108 121 133 133 127 126 135 131 114 87 103 110 115 128 140 127 136 65 80 94 107 99 114 106 40 358 315 317 322 333 338 312 161 297 329 360 331 319 296 288 295 309 299 295 316 323 317 317 326 324 308 282 269 243 222 204 162 165 182 189
129 109 116 115 115 115 114 112 127 120 94 94 98 92 90 76 74 79 85 96 82 83 93 122 110 151 184 254 309 302 311 323 279 285 39 21 334 332 314 300 306 296 282 285 292 301 301 305 309 302 314 314 315 323 297 265 253 259 242 162 173 191
93 110 113 118 118 121 102 105 114 91 77 72 66 68 62 59 62 69 79 84 77 98 101 126 148 174 187 231 256 287 305 294 298 288 290 292 305 312 337 321 314 318 325 325 325 317 314 311 308 307 309 301 317 316 330 294 260 286 286 274 196 182
99 108 119 122 122 101 88 85 77 74 76 74 69 72 63 47 43 40 56 45 100 123 143 220 208 222 205 244 284 331 303 288 301 330 13 328 355 349 344 336 302 341 321 331 319 304 310 306 291 295 297 295 305 302 313 328 293 241 252 260 257 80
92 96 92 78 80 90 90 85 79 69 67 75 73 74 66 32 17 339 22 346 119 34 117 280 315 32 41 62 38 353 360 338 321 35 13 360 13 316 314 289 285 308 306 314 303 298 296 286 286 290 289 297 291 286 299 292 294 249 236 241 194 160
74 79 78 81 76 83 78 72 67 70 62 44 64 70 76 104 17 4 23 18 6 2 9 2 349 13 48 28 29 22 334 5 291 26 5 3 354 318 297 288 289 266 318 311 322 313 311 306 301 290 286 286 279 280 281 280 275 268 228 184 200 196
85 90 90 84 80 70 76 72 71 74 73 65 76 76 77 57 47 48 41 38 55 61 44 353 6 6 14 358 346 18 336 294 359 19 26 3 344 318 322 311 326 328 319 292 314 308 311 308 302 292 289 289 279 277 274 265 263 255 251 215 215 229
112 105 100 99 95 85 80 86 78 65 66 65 70 78 79 68 57 41 65 52 52 42 37 25 12 339 7 304 32 44 345 335 350 9 14 353 316 322 330 23 3 345 348 333 315 306 300 299 301 301 301 294 290 280 268 263 254 256 255 262 258 238
113 106 99 101 98 92 91 101 107 91 76 78 75 77 77 72 65 47 61 67 56 50 331 13 344 340 16 320 1 343 333 307 311 359 343 329 319 325 344 18 40 339 336 318 293 287 285 291 303 301 294 289 287 280 274 266 262 261 256 252 248 239
107 110 109 107 103 99 98 115 122 123 87 76 70 75 78 85 94 76 84 92 101 117 67 14 351 316 280 295 325 314 312 329 338 349 356 351 348 348 353 10 355 351 340 330 320 301 314 324 308 304 299 297 283 284 282 268 260 251 261 263 248 237
127 135 131 127 116 120 123 125 112 110 114 125 102 94 89 83 80 98 108 138 133 104 113 197 234 191 43 30 25 6 11 14 17 20 17 11 358 6 10 9 351 358 350 343 323 326 327 320 335 315 295 285 294 288 280 281 268 281 277 268 264 257
140 146 130 124 126 120 142 144 130 135 133 132 127 98 90 87 87 71 73 62 53 70 126 89 63 50 46 34 27 27 28 24 24 18 16 15 17 14 13 19 16 11 2 1 345 349 337 342 358 343 328 326 312 313 304 29 91 360 300 285 278 268
158 131 117 127 126 131 133 129 129 148 135 114 80 87 105 91 102 103 134 140 156 137 81 72 59 52 42 32 31 30 28 25 24 18 17 20 22 23 21 24 20 20 356 2 347 343 354 9 342 317 295 333 335 347 338 355 359 341 316 296 289 276
157 131 121 130 121 118 119 114 108 109 93 93 112 98 75 75 97 156 116 120 91 72 67 61 53 49 47 41 36 33 27 27 23 24 30 31 27 26 20 22 18 18 19 12 0 343 8 6 3 350 0 342 286 325 332 354 330 315 306 352 332 294
148 129 126 132 122 124 118 103 102 102 105 100 84 91 107 99 109 92 78 58 56 57 56 56 50 48 47 44 37 34 31 22 21 18 30 34 30 21 23 21 19 17 21 17 2 349 0 9 2 32 10 345 335 345 11 318 324 284 360 339 320 331
117 122 134 136 136 141 141 137 135 125 117 111 107 104 113 116 100 87 79 73 61 57 59 55 49 44 43 41 34 29 30 27 26 25 32 35 29 24 21 21 13 11 14 15 11 12 5 5 355 27 20 27 347 318 331 328 325 325 340 256 314 348
123 127 138 136 137 137 136 144 141 131 122 123 119 102 89 97 100 93 89 80 75 67 63 60 50 51 42 35 31 25 31 31 32 34 33 32 26 23 15 15 10 17 17 18 23 28 16 0 352 21 3 8 0 358 353 348 350 332 337 339 28 345
111 136 140 137 141 148 139 136 126 119 117 117 114 113 105 101 98 98 88 86 79 69 64 64 56 47 42 34 33 30 33 32 30 28 32 24 17 16 17 4 20 34 34 32 29 28 15 14 16 359 357 6 4 3 1 3 22 6 317 327 325 340
124 145 143 139 137 137 126 135 131 129 121 115 114 110 106 103 103 102 99 92 83 77 67 60 61 56 47 38 32 29 32 35 28 26 31 25 20 24 22 26 35 42 38 33 30 26 32 20 18 12 3 8 4 5 359 2 9 3 354 324 317 338
142 145 136 119 117 117 120 122 120 130 125 126 121 114 112 112 107 102 95 90 87 85 84 74 61 49 38 30 28 26 36 41 40 33 32 27 26 20 19 36 47 50 43 40 26 32 36 25 25 15 17 6 9 356 6 8 15 1 349 11 339 331
132 117 117 127 132 126 123 121 125 127 124 125 124 121 114 107 108 100 99 95 94 98 89 83 73 53 44 37 33 39 42 41 41 34 29 29 29 22 22 42 50 47 39 37 26 33 30 33 31 23 17 10 7 6 6 3 2 3 358 347 340 335
128 128 128 132 128 113 108 105 101 101 104 107 112 110 105 104 105 105 105 104 93 79 69 69 67 60 43 41 47 42 40 38 33 29 27 32 29 30 36 48 50 41 26 14 10 35 36 42 35 28 26 7 354 348 357 9 7 3 3 352 342 331
116 108 109 112 109 106 101 98 98 98 97 97 96 99 99 100 91 86 81 81 88 90 82 67 50 49 32 57 65 52 39 33 30 27 35 36 27 33 42 49 49 35 20 15 4 11 30 38 38 32 12 347 356 3 14 13 19 19 12 358 351 342
110 106 105 100 98 94 93 96 94 93 91 91 90 87 87 89 88 86 89 90 90 91 88 82 65 50 48 50 64 61 50 44 42 37 40 38 36 38 46 53 44 29 13 5 11 23 18 17 23 15 12 14 29 28 26 21 21 22 14 8 4 359
116 113 108 103 98 95 96 95 93 91 93 92 91 89 87 90 91 90 87 93 88 82 82 84 79 67 47 47 59 63 62 58 47 42 44 48 44 45 45 47 33 21 10 12 19 18 14 19 25 26 35 38 41 33 25 21 19 18 19 20 12 3
116 115 107 106 100 102 98 98 100 101 97 95 94 93 91 86 83 82 82 87 92 94 93 92 98 92 72 68 69 62 51 53 46 40 47 57 55 53 48 49 31 19 22 7 23 23 24 37 35 31 37 45 43 33 20 23 19 15 21 21 15 6
113 105 103 100 103 102 102 97 96 98 99 96 94 94 95 90 89 88 92 95 98 101 100 100 103 117 93 58 62 67 58 57 50 40 45 57 62 63 59 47 32 19 11 360 20 27 36 42 33 29 35 44 43 32 18 19 19 15 15 17 14 0